[[{"header":{"parameterUnit":"m.s-1","parameterCategory":1,"la1":30.2991,"la2":30.254,"lo1":-89.0895,"lo2":-89.0444,"dy":0.0017,"dx":0.0017,"nx":28,"ny":28,"refTime":"2025-01-05T09:00:00:Z","depth":0,"parameterNumber":2,"parameterNumberName":"U-component_of_WINDS"},"data":[0,0,0,0,0,0,0,0,0,0,0,0,0,0,0,0,0,0,0,0,0,0,0,0,0,0,0,0,0,0,0,0,0,0,0,0,0,0,0,0,0,0,0,0,0,0,0,0,0,0,0,0,0,0,0,0,0,0,2.3462,2.3462,0,2.3461,2.3461,2.3461,2.343,2.3429,2.3428,2.3428,2.3427,2.3428,2.3428,0,0,0,0,0,0,0,0,0,0,0,0,0,2.3437,2.3437,2.3462,2.3462,2.3462,2.3461,2.3461,2.3461,2.343,2.3429,2.3428,2.3427,2.3427,2.3428,2.3428,0,0,0,0,0,0,0,0,0,0,0,0,0,2.3443,2.3437,2.3462,2.3446,2.3445,2.3461,2.3461,2.3461,2.343,2.3429,2.3428,2.3427,2.3426,2.3427,2.3429,2.346,0,0,2.3432,2.3432,0,0,0,0,0,0,0,0,2.3443,2.3444,2.3448,2.3447,2.3446,2.3444,2.3452,2.3461,2.3431,2.3436,2.3428,2.3426,2.3434,2.3434,2.3437,2.346,2.346,2.3432,2.3433,2.3433,2.3434,0,0,0,0,0,0,0,2.3442,2.3444,2.3462,2.3449,2.3447,2.344,2.3439,2.3454,2.3442,2.3435,2.3433,2.3433,2.3433,2.3436,2.3437,2.346,2.3432,2.3433,2.3434,2.3434,2.351,2.3511,0,0,0,0,0,0,2.3444,2.3444,2.3462,2.3462,2.3441,2.3441,2.344,2.3446,2.3441,2.3439,2.3434,2.3432,2.3434,2.3435,2.3436,2.3473,2.3433,2.3434,2.3435,2.3509,2.351,2.3512,0,0,0,0,0,0,2.3444,2.3446,2.3462,2.3452,2.3453,2.3443,2.3449,2.3447,2.345,2.3441,2.3438,2.344,2.3434,2.3435,2.3455,2.3473,2.3435,2.3436,2.3507,2.3509,2.3511,2.3547,0,0,0,0,0,0,2.3443,2.3446,2.3457,2.3453,2.3454,2.348,2.345,2.3448,2.3452,2.3448,2.3445,2.3443,2.3433,2.3453,2.3456,2.3473,2.3437,2.3505,2.3508,2.351,2.3544,2.355,2.3555,0,0,0,0,0,2.3442,2.3467,2.3458,2.346,2.3468,2.3481,2.3481,2.3469,2.3453,2.3465,2.3459,2.3443,2.3471,2.3455,2.3458,2.3476,2.3504,2.3507,2.351,2.3541,2.3548,2.3555,0,0,0,0,0,0,2.3473,2.3466,2.3456,2.348,2.3481,2.3475,2.3489,2.3477,2.3482,2.3479,2.3463,2.3463,2.3485,2.3483,2.3466,2.3507,2.3485,2.3488,2.3507,2.3514,2.3519,2.3519,2.3438,0,0,0,0,0,2.3483,2.3494,2.3487,2.3509,2.351,2.35,2.3505,2.3495,2.3496,2.3496,2.3492,2.3493,2.3502,2.3508,2.3516,2.3544,2.3543,2.3558,2.3564,2.3568,2.3571,2.3586,2.3593,2.3522,2.3522,2.3522,0,0,2.3503,2.3501,2.3508,2.3515,2.3515,2.3527,2.35,2.3514,2.3522,2.3498,2.3516,2.3514,2.3514,2.3539,2.3549,2.3538,2.3591,2.3572,2.3576,2.3576,2.359,2.3597,2.3603,2.3524,2.3523,2.3523,0,0,2.3546,2.3545,2.3563,2.3564,2.3565,2.3558,2.3563,2.3559,2.3556,2.3575,2.3557,2.3568,2.3583,2.3585,2.3587,2.3633,2.3618,2.3636,2.3664,2.3679,2.3684,2.3689,2.3705,2.3711,2.3639,2.3639,2.3639,0,2.357,2.3587,2.3574,2.3589,2.3593,2.3573,2.3591,2.3593,2.3596,2.3599,2.3587,2.3606,2.3605,2.363,2.3641,2.3644,2.3649,2.3635,2.3685,2.3689,2.3694,2.3709,2.3715,2.3641,2.3641,2.3641,2.3641,0,2.3617,2.363,2.3645,2.3648,2.3654,2.3671,2.3661,2.3669,2.366,2.3654,2.3674,2.3673,2.368,2.3685,2.3676,2.3709,2.3702,2.3687,2.3664,2.3703,2.3717,2.3722,2.3644,2.3644,2.3643,2.3642,0,0,2.3677,2.3675,2.3681,2.3683,2.3683,2.3692,2.3709,2.3717,2.3723,2.3727,2.374,2.3755,2.3742,2.3745,2.3736,2.375,2.3786,2.3734,2.3733,2.3743,2.3823,2.3833,2.384,2.3777,2.3778,2.3779,2.3822,0,2.3718,2.3745,2.3735,2.3764,2.3775,2.3757,2.3772,2.3774,2.377,2.378,2.3776,2.3786,2.3769,2.377,2.3783,2.3779,2.3802,2.3776,2.3789,2.379,2.3789,2.3847,2.3858,2.3898,2.3828,2.3829,2.3829,0,2.3768,2.3774,2.3804,2.3804,2.3808,2.3821,2.3828,2.3837,2.384,2.3836,2.3841,2.383,2.3846,2.3825,2.3848,2.383,2.3836,2.3835,2.3836,2.3836,2.3811,2.3848,2.3911,2.3917,2.3838,2.3837,2.3837,0,2.3808,2.3824,2.3844,2.3847,2.3847,2.3856,2.3857,2.3858,2.3864,2.387,2.3874,2.3882,2.3887,2.3893,2.3885,2.387,2.3909,2.3887,2.3907,2.3907,2.3914,2.3914,2.3979,2.392,2.392,2.392,2.3919,0,2.3854,2.3873,2.3862,2.3874,2.3896,2.3885,2.3906,2.3904,2.3906,2.3918,2.3904,2.3915,2.3904,2.3915,2.3908,2.3928,2.3931,2.3928,2.3926,2.3929,2.3929,2.3931,2.3928,2.3921,2.3921,2.3921,2.392,0,2.3901,2.3895,2.3916,2.3915,2.3915,2.3931,2.393,2.3941,2.3938,2.3953,2.3956,2.395,2.3962,2.3955,2.3967,2.3963,2.3989,2.3984,2.3988,2.3986,2.4007,2.4005,2.4074,2.4083,2.4019,2.402,2.402,0,2.393,2.3944,2.3945,2.3953,2.3954,2.3966,2.3972,2.3963,2.397,2.3975,2.3986,2.3997,2.4005,2.4025,2.4022,2.4032,2.4026,2.405,2.4027,2.403,2.4025,2.4024,2.4026,2.4054,2.4054,2.4055,2.4055,0,2.3982,2.3979,2.3988,2.3997,2.4005,2.4012,2.4017,2.4024,2.4015,2.4024,2.4036,2.4043,2.4056,2.4067,2.4075,2.4076,2.4064,2.4063,2.4068,2.407,2.4072,2.4071,2.4,2.4061,2.406,2.406,2.406,2.4059,2.402,2.4032,2.4036,2.4047,2.405,2.4056,2.4067,2.4066,2.4076,2.4086,2.408,2.4095,2.4099,2.4109,2.4112,2.4123,2.4113,2.4121,2.4122,2.4124,2.4127,2.4072,2.4125,2.4125,2.4124,2.4124,2.4124,0,2.4071,2.4073,2.4083,2.4092,2.4101,2.4091,2.4097,2.4105,2.4118,2.4123,2.4132,2.4147,2.4158,2.4157,2.4167,2.4177,2.4172,2.418,2.4178,2.4178,2.4135,2.4129,2.4183,2.4183,2.4183,2.4183,2.4183,2.4183,2.4098,2.4118,2.4116,2.4138,2.414,2.4154,2.4159,2.4164,2.4168,2.4185,2.4195,2.4194,2.4197,2.4208,2.4218,2.4217,2.4221,2.4231,2.4228,2.4187,2.4181,2.4176,2.417,2.4232,2.4232,2.4271,2.4271,2.4271]},{"header":{"parameterUnit":"m.s-1","parameterCategory":1,"la1":30.2991,"la2":30.254,"lo1":-89.0895,"lo2":-89.0444,"dy":0.0017,"dx":0.0017,"nx":28,"ny":28,"refTime":"2025-01-05T09:00:00:Z","depth":0,"parameterNumber":3,"parameterNumberName":"V-component_of_WINDS"},"data":[0,0,0,0,0,0,0,0,0,0,0,0,0,0,0,0,0,0,0,0,0,0,0,0,0,0,0,0,0,0,0,0,0,0,0,0,0,0,0,0,0,0,0,0,0,0,0,0,0,0,0,0,0,0,0,0,0,0,-8.1757,-8.1759,0,-8.1991,-8.1993,-8.1996,-8.193,-8.1925,-8.1921,-8.1916,-8.215,-8.2161,-8.2171,0,0,0,0,0,0,0,0,0,0,0,0,0,-8.1249,-8.1258,-8.1756,-8.1759,-8.1762,-8.199,-8.1993,-8.1997,-8.1931,-8.1925,-8.1919,-8.1914,-8.2147,-8.2159,-8.2172,0,0,0,0,0,0,0,0,0,0,0,0,0,-8.1474,-8.1261,-8.1756,-8.1757,-8.176,-8.199,-8.1993,-8.1997,-8.1932,-8.1925,-8.1918,-8.1911,-8.2143,-8.2158,-8.2174,-8.2415,0,0,-8.2223,-8.223,0,0,0,0,0,0,0,0,-8.1462,-8.1493,-8.1754,-8.1758,-8.1761,-8.1924,-8.19,-8.2137,-8.1934,-8.1867,-8.1916,-8.1908,-8.208,-8.2101,-8.216,-8.2426,-8.2436,-8.2224,-8.2234,-8.2241,-8.2245,0,0,0,0,0,0,0,-8.1446,-8.1483,-8.1849,-8.1758,-8.1762,-8.1745,-8.1769,-8.1945,-8.201,-8.1872,-8.1868,-8.1897,-8.2081,-8.2145,-8.2165,-8.2439,-8.2224,-8.2238,-8.2248,-8.2254,-8.2915,-8.2923,0,0,0,0,0,0,-8.1429,-8.147,-8.1841,-8.1856,-8.1591,-8.176,-8.1787,-8.1879,-8.2008,-8.2021,-8.1902,-8.1893,-8.2121,-8.2147,-8.2173,-8.2465,-8.2241,-8.2256,-8.2265,-8.2907,-8.2917,-8.2925,0,0,0,0,0,0,-8.1418,-8.1462,-8.1832,-8.1662,-8.1708,-8.1776,-8.188,-8.1887,-8.1951,-8.2032,-8.2042,-8.1957,-8.2117,-8.2151,-8.2356,-8.2472,-8.2263,-8.2277,-8.2898,-8.291,-8.2921,-8.305,0,0,0,0,0,0,-8.1404,-8.1459,-8.1552,-8.1665,-8.1717,-8.2013,-8.1887,-8.1897,-8.198,-8.1969,-8.2085,-8.2097,-8.2114,-8.2333,-8.2372,-8.249,-8.229,-8.2888,-8.2903,-8.2917,-8.3036,-8.3065,-8.309,0,0,0,0,0,-8.1386,-8.1578,-8.1558,-8.1603,-8.1836,-8.202,-8.2049,-8.2066,-8.1989,-8.2083,-8.2135,-8.2094,-8.2453,-8.2354,-8.2398,-8.2523,-8.288,-8.2899,-8.2916,-8.3023,-8.3059,-8.3089,0,0,0,0,0,0,-8.1476,-8.1593,-8.1571,-8.1806,-8.1904,-8.2008,-8.2127,-8.2103,-8.2223,-8.2208,-8.2221,-8.2248,-8.2458,-8.2511,-8.2398,-8.2763,-8.2655,-8.2683,-8.2722,-8.2756,-8.2783,-8.2766,-8.2303,0,0,0,0,0,-8.1523,-8.1664,-8.1758,-8.1956,-8.2006,-8.2059,-8.2139,-8.2144,-8.2245,-8.2285,-8.2351,-8.2449,-8.2584,-8.2673,-8.2801,-8.3042,-8.3067,-8.315,-8.3177,-8.3199,-8.3223,-8.3355,-8.3393,-8.2984,-8.2984,-8.2984,0,0,-8.1622,-8.1703,-8.1791,-8.1976,-8.2052,-8.2197,-8.2094,-8.2251,-8.2358,-8.2308,-8.2507,-8.2559,-8.2669,-8.2894,-8.2996,-8.2944,-8.3341,-8.3222,-8.3239,-8.3251,-8.3377,-8.3416,-8.345,-8.2996,-8.2994,-8.2992,0,0,-8.1876,-8.1952,-8.2126,-8.2205,-8.2322,-8.2356,-8.2398,-8.2507,-8.254,-8.274,-8.2706,-8.2833,-8.3065,-8.3145,-8.3216,-8.3502,-8.3469,-8.3543,-8.3685,-8.3814,-8.3846,-8.3875,-8.3977,-8.4014,-8.3567,-8.3567,-8.3567,0,-8.1984,-8.2203,-8.2218,-8.2379,-8.2461,-8.2425,-8.2601,-8.2676,-8.2828,-8.2885,-8.2825,-8.3117,-8.3188,-8.3432,-8.3502,-8.356,-8.3608,-8.3531,-8.384,-8.3869,-8.3896,-8.3994,-8.4033,-8.3575,-8.3574,-8.3574,-8.3573,0,-8.2329,-8.2481,-8.2607,-8.2758,-8.2854,-8.3022,-8.3061,-8.3157,-8.3153,-8.3193,-8.3396,-8.3481,-8.3627,-8.3684,-8.3681,-8.3928,-8.3892,-8.3836,-8.3728,-8.3943,-8.4036,-8.4073,-8.3587,-8.3584,-8.3582,-8.358,0,0,-8.2647,-8.2805,-8.2851,-8.292,-8.3047,-8.3164,-8.3329,-8.3474,-8.3556,-8.3662,-8.3801,-8.3999,-8.3948,-8.4029,-8.4034,-8.4147,-8.4369,-8.4078,-8.408,-8.413,-8.4647,-8.4689,-8.4732,-8.4348,-8.4355,-8.4361,-8.4638,0,-8.2913,-8.3207,-8.3226,-8.3491,-8.3631,-8.3599,-8.3743,-8.3836,-8.3877,-8.4001,-8.4045,-8.4186,-8.4109,-8.4158,-8.4268,-8.4319,-8.4473,-8.4299,-8.4476,-8.4482,-8.4451,-8.478,-8.4825,-8.5082,-8.4674,-8.468,-8.4684,0,-8.3263,-8.3383,-8.3663,-8.3771,-8.3831,-8.396,-8.4094,-8.4214,-8.4318,-8.434,-8.4432,-8.4421,-8.459,-8.4475,-8.4707,-8.4588,-8.4662,-8.4698,-8.4708,-8.4726,-8.4597,-8.4807,-8.5165,-8.5204,-8.4741,-8.4737,-8.4733,0,-8.3468,-8.3699,-8.3896,-8.3956,-8.4087,-8.4179,-8.4237,-8.4335,-8.4421,-8.4537,-8.4593,-8.4727,-8.48,-8.4903,-8.4929,-8.4843,-8.5161,-8.5048,-8.5184,-8.5183,-8.5253,-8.5248,-8.5628,-8.5299,-8.5298,-8.5297,-8.5296,0,-8.3764,-8.3937,-8.3991,-8.4112,-8.4305,-8.4324,-8.4513,-8.4565,-8.4652,-8.4783,-8.4761,-8.4884,-8.491,-8.5037,-8.5058,-8.5247,-8.528,-8.5302,-8.5306,-8.5305,-8.5303,-8.5354,-8.5337,-8.5308,-8.5305,-8.5303,-8.5302,0,-8.4026,-8.4069,-8.4282,-8.4389,-8.442,-8.4557,-8.4648,-8.4765,-8.4803,-8.4969,-8.5008,-8.5069,-8.5218,-8.5254,-8.543,-8.5444,-8.5668,-8.5654,-8.5634,-8.5634,-8.5767,-8.5754,-8.6194,-8.6252,-8.5884,-8.5887,-8.589,0,-8.4212,-8.4345,-8.4467,-8.4554,-8.4617,-8.4757,-8.4845,-8.4868,-8.4961,-8.509,-8.5191,-8.5338,-8.5456,-8.5695,-8.5754,-8.5889,-8.5878,-8.6023,-8.5898,-8.5894,-8.5882,-8.5874,-8.5887,-8.6047,-8.6051,-8.6054,-8.6057,0,-8.4539,-8.4554,-8.4683,-8.4821,-8.4927,-8.5035,-8.5139,-8.5211,-8.5248,-8.5353,-8.5506,-8.5599,-8.578,-8.5926,-8.6062,-8.612,-8.6096,-8.6095,-8.6134,-8.6135,-8.6118,-8.613,-8.57,-8.6085,-8.6082,-8.608,-8.6079,-8.6078,-8.477,-8.4886,-8.4991,-8.5135,-8.5216,-8.5314,-8.5429,-8.5483,-8.5612,-8.5763,-8.5768,-8.5935,-8.6036,-8.6216,-8.6283,-8.6412,-8.6368,-8.6423,-8.6438,-8.6451,-8.6464,-8.6097,-8.6437,-8.6436,-8.6435,-8.6435,-8.6434,0,-8.5096,-8.5162,-8.5295,-8.5442,-8.5556,-8.5524,-8.5637,-8.5734,-8.5881,-8.5978,-8.6096,-8.6273,-8.6414,-8.6484,-8.6624,-8.6715,-8.6707,-8.6751,-8.6745,-8.6759,-8.6495,-8.6448,-8.6755,-8.6755,-8.6755,-8.6755,-8.6755,-8.6754,-8.528,-8.5476,-8.5503,-8.5739,-8.5803,-8.5968,-8.6036,-8.6125,-8.6203,-8.6401,-8.652,-8.6565,-8.6652,-8.6798,-8.6926,-8.6943,-8.6995,-8.7046,-8.7057,-8.6809,-8.6777,-8.6746,-8.6702,-8.7057,-8.7057,-8.7309,-8.7312,-8.7314]}]]